Regional Weather Roundup
Issued by NWS

Home | Current Version | Previous Version | Text Only | Print | Product List | Glossary Off
Versions: 1 2 3 4 5 6 7 8 9 10 11 12 13 14 15 16 17 18 19 20 21 22 23 24 25 26 27 28 29 30 31 32 33 34 35 36 37 38 39 40 41 42 43 44 45 46 47 48 49 50

000
ASUS44 KMEG 211710
RWRTN
TENNESSEE HOURLY STATE WEATHER ROUNDUP
NATIONAL WEATHER SERVICE MEMPHIS TN
1200 PM CDT SUN SEP 21 2014

TNZ002-004-019-021-049-052-054-088>092-211800-
WEST TENNESSEE

CITY           SKY/WX    TMP DP  RH WIND       PRES   REMARKS
MEMPHIS INTL   MOSUNNY   87  69  54 W7        30.03F HX  91
NWS MEMPHIS      N/A     85 N/A N/A MISG        N/A
JACKSON        MOSUNNY   81  68  64 W12       30.02F
DYERSBURG      MOSUNNY   82  64  54 NW8       30.02F
UNION CITY     MOSUNNY   77  70  78 VRB5      29.99F
PARIS          MOSUNNY   77  68  73 W9        30.00F
HUNTINGDON     PTSUNNY   78  68  71 W7        30.00F
LEXINGTON      PTSUNNY   82  70  65 NW12      30.00F
SAVANNAH       CLOUDY    84  70  61 NW9       30.02F
$$

TNZ008-025-027-028-033-062-065-066-211800-
NORTH MIDDLE TENNESSEE

CITY           SKY/WX    TMP DP  RH WIND       PRES   REMARKS
NASHVILLE      PTSUNNY   83  67  58 W13G21    29.98F
DICKSON          N/A     79  68  69 W10       29.99F
PORTLAND       CLOUDY    73  66  78 SW8       29.97S
CLARKSVILLE    MOSUNNY   81  70  69 W13       29.96F
LEBANON        MOSUNNY   82  67  60 SW12      29.96F
SMYRNA         PTSUNNY   85  68  56 W14       29.99S
COOKEVILLE     MOSUNNY   81  70  69 W9        30.00F
GALLATIN       PTSUNNY   79  70  74 VRB6      29.99S
CROSSVILLE     CLOUDY    74  64  71 SW7       30.04F
$$

TNZ061-075-076-078-094-096-097-211800-
SOUTH MIDDLE TENNESSEE

CITY           SKY/WX    TMP DP  RH WIND       PRES   REMARKS
LEWISBURG      PTSUNNY   86  68  54 SW13      30.00F
FAYETTEVILLE   MOSUNNY   82  66  57 W10       30.03F
WINCHESTER     SUNNY     82  66  57 W9        30.03S
MCMINNVILLE    MOSUNNY   81  70  69 W14       30.01F
COLUMBIA       PTSUNNY   84  70  61 W14       30.00S
SHELBYVILLE    PTSUNNY   86  70  58 W15       30.01F HX  90
$$

TNZ017-018-042-046-047-211800-
NORTHEAST TENNESSEE

CITY           SKY/WX    TMP DP  RH WIND       PRES   REMARKS
TRI CITIES     PTSUNNY   79  62  56 SW12G22   29.97F
ELIZABETHTON   CLOUDY    73  63  68 W8        29.98F
$$

TNZ012-013-036-069-073-074-211800-
CENTRAL EAST TENNESSEE

CITY           SKY/WX    TMP DP  RH WIND       PRES   REMARKS
KNOXVILLE      PTSUNNY   81  64  56 W15G23    29.98F
OAK RIDGE      CLOUDY    78  65  63 VRB6      30.00F
GATLINBURG     MOSUNNY   81  63  54 W12       29.98F
MORRISTOWN     SUNNY     81  64  57 SW15      29.98F
$$

TNZ083-085-099-211800-
SOUTHEAST TENNESSEE

CITY           SKY/WX    TMP DP  RH WIND       PRES   REMARKS
CHATTANOOGA    PTSUNNY   84  63  49 W12       30.02F
$$

SKY/WX REPORTED AS FAIR MEANS FEW OR NO CLOUDS BELOW
12 THOUSAND FEET.



USA.gov is the U.S. government's official web portal to all federal, state and local government web resources and services.